Tracking 31027 objects as of 19-Jul-2025
HD Live streaming from Space Station
objects crossing your sky now

STARLINK-2280

Track STARLINK-2280 now!
10-day predictions
STARLINK-2280 is classified as:


NORAD ID: 47861
Int'l Code: 2021-021B
Perigee: 553.6 km
Apogee: 555.2 km
Inclination: 53.1 °
Period: 95.6 minutes
Semi major axis: 6925 km
RCS: Unknown
Launch date: March 14, 2021
Source: United States (US)
Launch site: AIR FORCE EASTERN TEST RANGE (AFETR)
Your satellite tracking list
COSMOS 2251 DEB
Track 1 satellite(s)




NASA's NSSDC Master Catalog

Two Line Element Set (TLE):
1 47861U 21021B   25199.39715825 -.00000339  00000-0 -38497-5 0  9991
2 47861  53.0542 238.4011 0001151  89.6363 270.4757 15.06395414240959
Source of the keplerian elements: AFSPC